Regional Weather Roundup
Issued by NWS

Home | Current Version | Previous Version | Graphics & Text | Print | Product List | Glossary On
Versions: 1 2 3 4 5 6 7 8 9 10 11 12 13 14 15 16 17 18 19 20 21 22 23 24 25 26 27 28 29 30 31 32 33 34 35 36 37 38 39 40 41 42 43 44 45 46 47 48 49 50
000
ASUS43 KDTX 300401
RWRMI
MICHIGAN HOURLY REGIONAL WEATHER ROUNDUP
NATIONAL WEATHER SERVICE DETROIT/PONTIAC MI
1200 AM EDT MON MAR 30 2015

NOTE: "FAIR" INDICATES FEW OR NO CLOUDS BELOW 12,000 FEET WITH NO
SIGNIFICANT WEATHER AND/OR OBSTRUCTION TO VISIBILITY.

MIZ047>049-052>055-059>063-066>070-074>076-081>083-300500-
SOUTHEAST LOWER MICHIGAN

CITY           SKY/WX    TMP DP  RH WIND       PRES   REMARKS
ADRIAN         CLOUDY    39  32  76 SW14      29.78F WCI  31
ALMA           CLOUDY    39  36  89 W15G25    29.69R WCI  30
ANN ARBOR      CLOUDY    39  32  76 SW15G21   29.75F WCI  31
BAD AXE        LGT SNOW  36  33  90 SW15G22   29.62F WCI  26
CARO           RAIN      37  35  96 SW13      29.64F WCI  28
DETROIT CITY   CLOUDY    43  30  60 SW22G30   29.73F
DETROIT        CLOUDY    41  31  67 SW25      29.76F
FLINT          CLOUDY    41  36  82 SW18      29.69F HAZE
GROSSE ILE     CLOUDY    43  34  70 SW17G28   29.75F
HILLSDALE      CLOUDY    42  38  83 W16G26    29.79R
HOWELL         CLOUDY    39  37  93 SW24G30   29.71S WCI  29

CITY           SKY/WX    TMP DP  RH WIND       PRES   REMARKS
JACKSON        CLOUDY    41  36  82 W17G29    29.76R
LAMBERTVILLE   CLOUDY    43  32  65 SW10G26   29.80R
LANSING        CLOUDY    40  34  79 W18G30    29.74R WCI  31
LAPEER         DRIZZLE   37  35  92 SW14G21   29.67F WCI  28
MASON          CLOUDY    39  35  87 W14G25    29.74R WCI  30
MONROE         CLOUDY    41  34  75 SW20G30   29.77S
PONTIAC        LGT RAIN  37  33  85 SW13G23   29.70F WCI  29
PORT HOPE        N/A     37  33  85 SW10G23   29.59F WCI  30
PORT HURON     CLOUDY    39  32  75 SW13G24   29.70F WCI  32
TRI CITIES     CLOUDY    40  35  83 W20G29    29.65S WCI  30
TROY           CLOUDY    41  31  66 SW18G25   29.73F
SAGINAW HB     CLOUDY    37  37 100 SW20G29   29.65S WCI  27
$$
MIZ043>046-050>051-056>058-064>065-071>073-077>080-300500-
SOUTHWEST LOWER MICHIGAN

CITY           SKY/WX    TMP DP  RH WIND       PRES   REMARKS
BATTLE CREEK   CLOUDY    42  33  70 W17G29    29.80R
BENTON HARBOR  CLOUDY    41  33  73 W17G24    29.88R
BIG RAPIDS     CLOUDY    38  33  84 NW14G25   29.69R WCI  29
COLDWATER      CLOUDY    42  33  71 W15G25    29.82R
FREMONT        CLOUDY    38  32  78 W18       29.76R WCI  29
HOLLAND        CLOUDY    41  33  73 W14G23    29.83R
GRAND RAPIDS   CLOUDY    40  33  76 W22G31    29.78R WCI  30
IONIA          CLOUDY    40  34  79 W20G30    29.73R WCI  31
KALAMAZOO      CLOUDY    42  33  70 W20G29    29.82R
LUDINGTON      CLOUDY    39  33  80 W10G20    29.77R WCI  32
MARSHALL       CLOUDY    40  34  80 W17G28    29.79R WCI  31
MOUNT PLEASANT CLOUDY    38  35  87 W14G22    29.66R WCI  30
MUSKEGON       CLOUDY    41  33  73 W22G30    29.80R
SOUTH HAVEN    CLOUDY    40  33  75 W12       29.86R WCI  34
$$
MIZ016>042-300500-
NORTHERN LOWER MICHIGAN

CITY           SKY/WX    TMP DP  RH WIND       PRES   REMARKS
ALPENA         CLOUDY    36  32  85 SW8G17    29.52F WCI  30
BEAVER ISLAND  CLOUDY    34  32  92 W15G24    29.59R WCI  24
BELLAIRE       CLOUDY    36  33  87 W8G21     29.64R WCI  30
CADILLAC       CLOUDY    36  32  86 W25G35    29.64R WCI  24
CHARLEVOIX     CLOUDY    34  33  96 W22G29    29.64R WCI  23
FRANKFORT      CLOUDY    39  32  75 W16G22    29.71R WCI  30
GAYLORD        LGT SNOW  33  33 100 NW17G26   29.55R FOG     WCI  22
GRAYLING       LGT SNOW  34  32  92 W16G30    29.58R WCI  24
HARBOR SPRINGS CLOUDY    34  32  94 W9G16     29.57R WCI  26
HOUGHTON LAKE  CLOUDY    35  32  88 W14G23    29.60R WCI  26
MANISTEE       CLOUDY    37  30  75 W23G29    29.74R WCI  26
OSCODA         LGT RAIN  35  33  94 SW10      29.56F WCI  27
PELLSTON       CLOUDY    35  32  88 W17G26    29.55R WCI  25
ROGERS CITY    DRIZZLE   34  33  96 W8G16     29.52S WCI  28
TRAVERSE CITY  CLOUDY    38  32  79 W23G33    29.66R WCI  27
$$
MIZ007>008-015-300500-
EASTERN UPPER MICHIGAN

CITY           SKY/WX    TMP DP  RH WIND       PRES   REMARKS
KINROSS        CLOUDY    34  32  93 NW16      29.47R WCI  23
MACKINAC ISLAN CLOUDY    33  33  99 W20G26    29.51R WCI  21
NEWBERRY       LGT SNOW  32  32  99 NW14G23   29.53R WCI  22
S. S. MARIE    LGT SNOW  33  31  92 W16G24    29.45S FOG     WCI  23
$$
MIZ004>006-011>014-085-300500-
CENTRAL UPPER MICHIGAN

CITY           SKY/WX    TMP DP  RH WIND       PRES   REMARKS
MANISTIQUE     LGT RAIN  35  34  96 NW13G22   29.60R WCI  26
ESCANABA       PTCLDY    37  30  75 NW15G21   29.66R WCI  28
MENOMINEE      CLEAR     39  28  65 NW6       29.73R WCI  35
SAWYER-GWINN   CLOUDY    35  30  82 NW21G26   29.65R WCI  24
$$
MIZ001>003-009>011-084-300500-
WESTERN UPPER MICHIGAN

CITY           SKY/WX    TMP DP  RH WIND       PRES   REMARKS
IRON MOUNTAIN  MOCLDY    37  28  70 NW16      29.70R WCI  28
HOUGHTON       CLOUDY    35  29  78 W16       29.68R WCI  25
COPPER HARBOR    N/A     36  29  75 N18G29    29.64R WCI  26
IRONWOOD       CLEAR     36  28  75 W12       29.77R WCI  27
$$

ABBREVIATIONS USED IN REMARKS
   TC - TEMPERATURE IN CELSIUS
  WCI - WIND CHILL INDEX
   HX - HEAT INDEX
  VSB - VISIBILITY



USA.gov is the U.S. government's official web portal to all federal, state and local government web resources and services.